Regional Weather Roundup
Issued by NWS

Home | Current Version | Previous Version | Text Only | Print | Product List | Glossary Off
Versions: 1 2 3 4 5 6 7 8 9 10 11 12 13 14 15 16 17 18 19 20 21 22 23 24 25 26 27 28 29 30 31 32 33 34 35 36 37 38 39 40 41 42 43 44 45 46 47 48 49 50

000
ASUS43 KIND 200309
RWRIN

WEATHER ROUNDUP FOR INDIANA
NATIONAL WEATHER SERVICE INDIANAPOLIS IN
1100 PM EDT TUE AUG 19 2014

NOTE: "FAIR" INDICATES FEW OR NO CLOUDS BELOW 12,000 FEET WITH NO
SIGNIFICANT WEATHER AND/OR OBSTRUCTIONS TO VISIBILITY.

* - STATION DOES NOT REPORT WEATHER SUCH AS PRECIPITATION OR FOG.

+ - STATION NOT QUALITY CONTROLLED BY THE NATIONAL WEATHER SERVICE.
    USE DATA WITH CAUTION...ESPECIALLY DEWPOINT AND RELATIVE
    HUMIDITY OBSERVATIONS.

INZ001>003-010>013-019-020-200400-
NORTHWEST INDIANA

CITY           SKY/WX    TMP DP  RH WIND       PRES   REMARKS
GARY /AIRPORT/ PTCLDY    77  69  76 SW6       29.77R
KNOX *+        PTCLDY    69  64  85 SW6       29.78R
LA PORTE +     CLEAR     70  68  94 SW5       29.79R
MICHIGAN CITY+ PTCLDY    72  64  78 S7        29.77R
MONTICELLO +   PTCLDY    66  65  96 S3        29.80R
RENSSELAER +   MOCLDY    68  68 100 SW3       29.80S
VALPARAISO     PTCLDY    71  65  81 S7        29.78R

$$

LMZ046-743>745-200400-
SOUTHERN LAKE MICHIGAN

STATION/POSITION TIME  TEMP WIND        PRES
                       AIR  DIR/SP/G
                 (UTC) (F)  (DEG/KT/KT) (MB)
BURNS HARBOR     0300   76  190/ 10/ 13   N/A
MICHIGAN CITY    0300   75  170/ 12/ 16   N/A

$$

INZ004-005-014>016-021>024-200400-
NORTH CENTRAL INDIANA

CITY           SKY/WX    TMP DP  RH WIND       PRES   REMARKS
GOSHEN         CLOUDY    72  66  81 SW6       29.80R
LOGANSPORT +   CLOUDY    66  63  88 S5        29.81S
PERU/GRISSOM   PTCLDY    68  68 100 SW13      29.81S
ROCHESTER +    CLOUDY    72  68  88 SW6       29.81S
SOUTH BEND     MOCLDY    73  67  81 SW9       29.78R
WARSAW +       CLOUDY    70  68  94 S6        29.80R

$$

INZ006>009-017-018-025>027-200400-
NORTHEAST INDIANA

CITY           SKY/WX    TMP DP  RH WIND       PRES   REMARKS
ANGOLA *+      MOCLDY    70  61  73 VRB3      29.80R
AUBURN +       RAIN      70  64  83 CALM      29.82S
FORT WAYNE     LGT RAIN  70  68  93 W5        29.83R
HUNTINGTON +   DRIZZLE   69  67  95 CALM      29.81R

$$

INZ028-029-035-036-043>045-051>053-200400-
WEST CENTRAL INDIANA

CITY           SKY/WX    TMP DP  RH WIND       PRES   REMARKS
GREENCASTLE +  HVY RAIN  68  63  83 W12G39    29.87R VSB 3/4
LAFAYETTE      CLEAR     66  63  90 NW3       29.80S
TERRE HAUTE    TSTM      77  72  84 W12G18    29.83R

$$

INZ030>032-037>040-046>048-054>057-064-065-200400-
CENTRAL INDIANA

CITY           SKY/WX    TMP DP  RH WIND       PRES   REMARKS
CP ATTERBURY + PTCLDY    72  70  94 CALM      29.84R
INDIANAPOLIS   TSTM      66  61  84 N17G36    29.85R
-EAGLE CREEK   TSTM      64  61  90 S10       29.84R FOG
KOKOMO *+      CLOUDY    70  64  83 SW6       29.82F
MARION +       CLOUDY    69  65  86 SW7       29.82S
MT COMFORT *+  MOCLDY    73  73 100 CALM      29.85R
SHELBYVILLE    PTCLDY    77  69  76 S6        29.84R
ZIONSVILLE +   TSTM      69  65  84 S5        29.86F

$$

INZ033-034-041-042-049-050-058-059-200400-
EAST CENTRAL INDIANA

CITY           SKY/WX    TMP DP  RH WIND       PRES   REMARKS
MUNCIE         MOCLDY    73  69  87 SW3       29.82S

$$

INZ060-061-067>069-081>083-085>088-200400-
SOUTHWEST INDIANA

CITY           SKY/WX    TMP DP  RH WIND       PRES   REMARKS
EVANSVILLE     MOCLDY    79  73  82 SW8       29.84R
WASHINGTON +   CLOUDY    75  75 100 S5        29.82S

$$

INZ062-063-066-070>080-084-089>092-200400-
SOUTH CENTRAL AND SOUTHEAST INDIANA

CITY           SKY/WX    TMP DP  RH WIND       PRES   REMARKS
BLOOMINGTON    MOCLDY    75  72  90 S6        29.83S
SEYMOUR +      MOCLDY    70  61  73 S3        29.83R

$$




USA.gov is the U.S. government's official web portal to all federal, state and local government web resources and services.